^^
Station Historical Data
Daily Summary for Nil La, TWC- Units:  Metric    English   Both
« Previous Day
Next Day »
Daily Weekly Monthly Yearly Custom
  High: Low: Average:
Temperature: -17.8 °C 12.2 °C 13 °C
Dew Point: -17.8 °C 3.9 °C 4.8 °C
Humidity: Humidity% 52% 56%
Wind Speed: 0km/h 3.2km/h 13.4km/h
Wind Gust: 0km/h - -
Wind- - SSW
Pressure: 0 hPa 1012.1 hPa -
Precipitation: 0 mm    
Historical Graphs
 
 
Tabular Data for Nil La, TWC-
Time Temperature Dew Point Pressure Wind Wind Speed Wind Gust Humidity Rainfall Rate (Hourly) solar Conditions
-17.8 °C -17.8 °C 0 hPa Calm     Humidity% 0 mm SolarRadiationWatts/m^2 W/m2 Conditions
00:03 15.3 °C 5.5 °C 1012.4 hPa South 27.4 km/h 27.4 km/h 52% 0 mm 0.0 W/m2
00:13 15.1 °C 5.6 °C 1012.4 hPa South 16.3 km/h 24.1 km/h 53% 0 mm 0.0 W/m2
00:18 15.1 °C 5.6 °C 1012.8 hPa South 19.5 km/h 22.5 km/h 53% 0 mm 0.0 W/m2
00:23 15 °C 5.8 °C 1012.8 hPa South 19.5 km/h 27.4 km/h 54% 0 mm 0.0 W/m2
00:28 14.9 °C 5.7 °C 1012.8 hPa South 20.9 km/h 25.7 km/h 54% 0 mm 0.0 W/m2
00:33 14.9 °C 5.9 °C 1012.8 hPa South 24.1 km/h 24.1 km/h 55% 0 mm 0.0 W/m2
00:38 14.8 °C 5.8 °C 1012.8 hPa South 19.5 km/h 24.1 km/h 55% 0 mm 0.0 W/m2
00:48 14.6 °C 5.9 °C 1012.8 hPa South 24.1 km/h 27.4 km/h 56% 0 mm 0.0 W/m2
00:53 14.6 °C 5.9 °C 1012.8 hPa South 19.5 km/h 22.5 km/h 56% 0 mm 0.0 W/m2
00:58 14.5 °C 5.8 °C 1012.4 hPa South 20.9 km/h 29 km/h 56% 0 mm 0.0 W/m2
01:03 14.4 °C 5.7 °C 1012.4 hPa SSW 24.1 km/h 27.4 km/h 56% 0 mm 0.0 W/m2
01:08 14.4 °C 5.7 °C 1012.4 hPa South 16.3 km/h 27.4 km/h 56% 0 mm 0.0 W/m2
01:13 14.3 °C 5.6 °C 1012.4 hPa SSW 19.5 km/h 30.6 km/h 56% 0 mm 0.0 W/m2
01:18 14.2 °C 5.5 °C 1012.4 hPa South 24.1 km/h 29 km/h 56% 0 mm 0.0 W/m2
01:28 14.1 °C 5.5 °C 1012.4 hPa South 16.3 km/h 24.1 km/h 56% 0 mm 0.0 W/m2
01:33 14.1 °C 5.7 °C 1012.4 hPa South 24.1 km/h 24.1 km/h 57% 0 mm 0.0 W/m2
01:38 13.9 °C 5.5 °C 1012.4 hPa SSW 16.3 km/h 20.9 km/h 57% 0 mm 0.0 W/m2
01:48 13.9 °C 5.5 °C 1012.4 hPa SSW 20.9 km/h 22.5 km/h 57% 0 mm 0.0 W/m2
01:53 13.9 °C 5.5 °C 1012.4 hPa SSW 11.1 km/h 20.9 km/h 57% 0 mm 0.0 W/m2
01:58 13.8 °C 5.4 °C 1012.4 hPa SSW 11.1 km/h 22.5 km/h 57% 0 mm 0.0 W/m2
02:04 13.8 °C 5.4 °C 1012.4 hPa SSW 11.1 km/h 16.1 km/h 57% 0 mm 0.0 W/m2
02:09 13.7 °C 5.3 °C 1012.4 hPa SSW 11.1 km/h 17.7 km/h 57% 0 mm 0.0 W/m2
02:14 13.7 °C 5.3 °C 1012.8 hPa SSW 16.3 km/h 19.3 km/h 57% 0 mm 0.0 W/m2
02:24 13.6 °C 5.2 °C 1012.4 hPa SSW 16.3 km/h 20.9 km/h 57% 0 mm 0.0 W/m2
02:29 13.6 °C 5.2 °C 1012.8 hPa SSW 16.3 km/h 19.3 km/h 57% 0 mm 0.0 W/m2
02:34 13.6 °C 5.2 °C 1012.8 hPa SSW 17.7 km/h 17.7 km/h 57% 0 mm 0.0 W/m2
02:39 13.5 °C 5.4 °C 1012.8 hPa SSW 13 km/h 13 km/h 58% 0 mm 0.0 W/m2
02:44 13.4 °C 5.3 °C 1012.8 hPa SSW 14.3 km/h 19.3 km/h 58% 0 mm 0.0 W/m2
02:49 13.4 °C 5.3 °C 1012.4 hPa SSW 13 km/h 17.7 km/h 58% 0 mm 0.0 W/m2
02:54 13.4 °C 5.3 °C 1012.8 hPa SW 14.3 km/h 17.7 km/h 58% 0 mm 0.0 W/m2
02:59 13.4 °C 5.3 °C 1012.8 hPa SW 14.3 km/h 16.1 km/h 58% 0 mm 0.0 W/m2
03:04 13.4 °C 5.3 °C 1012.4 hPa SW 14.3 km/h 16.1 km/h 58% 0 mm 0.0 W/m2
03:09 13.3 °C 5.2 °C 1012.4 hPa SSW 11.1 km/h 14.5 km/h 58% 0 mm 0.0 W/m2
03:14 13.3 °C 5.2 °C 1012.4 hPa SW 7.9 km/h 16.1 km/h 58% 0 mm 0.0 W/m2
03:24 13.3 °C 5.2 °C 1012.4 hPa SW 13 km/h 13 km/h 58% 0 mm 0.0 W/m2
03:29 13.3 °C 5.2 °C 1012.4 hPa SW 9.7 km/h 11.3 km/h 58% 0 mm 0.0 W/m2
03:34 13.2 °C 5.1 °C 1012.4 hPa SW 9.7 km/h 12.9 km/h 58% 0 mm 0.0 W/m2
03:39 13.2 °C 5.1 °C 1012.4 hPa SW 11.1 km/h 12.9 km/h 58% 0 mm 0.0 W/m2
03:44 13.2 °C 5.1 °C 1012.4 hPa SW 13 km/h 13 km/h 58% 0 mm 0.0 W/m2
03:55 13 °C 5.2 °C 1012.4 hPa SW 4.7 km/h 11.3 km/h 59% 0 mm 0.0 W/m2
04:00 12.9 °C 5.1 °C 1012.1 hPa SW 9.7 km/h 11.3 km/h 59% 0 mm 0.0 W/m2
04:05 12.8 °C 5 °C 1012.1 hPa SW 7.9 km/h 11.3 km/h 59% 0 mm 0.0 W/m2
04:10 12.8 °C 5 °C 1012.1 hPa SW 7.9 km/h 9.7 km/h 59% 0 mm 0.0 W/m2
04:15 12.8 °C 5 °C 1012.1 hPa SW 11.1 km/h 12.9 km/h 59% 0 mm 0.0 W/m2
04:20 12.8 °C 5 °C 1012.1 hPa SW 9.7 km/h 16.1 km/h 59% 0 mm 0.0 W/m2
04:30 12.8 °C 4.7 °C 1012.1 hPa SW 16.3 km/h 16.3 km/h 58% 0 mm 0.0 W/m2
04:35 12.7 °C 4.6 °C 1012.1 hPa SW 9.7 km/h 14.5 km/h 58% 0 mm 0.0 W/m2
04:40 12.7 °C 4.6 °C 1012.4 hPa SW 11.1 km/h 14.5 km/h 58% 0 mm 0.0 W/m2
04:50 12.7 °C 4.6 °C 1012.4 hPa SSW 7.9 km/h 11.3 km/h 58% 0 mm 0.0 W/m2
04:55 12.7 °C 4.6 °C 1012.4 hPa SW 7.9 km/h 11.3 km/h 58% 0 mm 0.0 W/m2
05:01 12.7 °C 4.6 °C 1012.4 hPa SW 3.2 km/h 6.4 km/h 58% 0 mm 0.0 W/m2
05:06 12.6 °C 4.3 °C 1012.4 hPa SW 4.7 km/h 6.4 km/h 57% 0 mm 0.0 W/m2
05:11 12.5 °C 4.5 °C 1012.4 hPa SW 6.4 km/h 6.4 km/h 58% 0 mm 0.0 W/m2
05:16 12.4 °C 4.4 °C 1012.4 hPa SW 4.7 km/h 8 km/h 58% 0 mm 0.0 W/m2
05:21 12.3 °C 4.3 °C 1012.4 hPa SW 4.7 km/h 4.8 km/h 58% 0 mm 0.0 W/m2
05:26 12.3 °C 4.3 °C 1012.4 hPa SW 4.7 km/h 8 km/h 58% 0 mm 0.0 W/m2
05:31 12.3 °C 4.3 °C 1012.4 hPa SW 6.4 km/h 8 km/h 58% 0 mm 0.0 W/m2
05:41 12.2 °C 4.2 °C 1012.4 hPa SW 7.9 km/h 9.7 km/h 58% 0 mm 0.0 W/m2
05:46 12.2 °C 3.9 °C 1012.4 hPa SW 7.9 km/h 9.7 km/h 57% 0 mm 0.0 W/m2
Canyon Roadhouse, Fishriver Canyon, Namibia
Compliments of Weather Underground - 2 mb